www.pogodaiklimat.ru

Погода и климат >> Архив погоды >> Канада >> Нунавут >> Джойа Хейвен


ПОГОДА в Джойа Хейвен

  • Прогноз погоды в Джойа Хейвен
  • Монитор погоды в Джойа Хейвен

АРХИВ ПОГОДЫ в Джойа Хейвен

Время (UTC), дата Ветер
(напр.,м/с)
 
Видим.   Явления Облачность Т
(С)
Тd
(С)
f
(%)
Тe
(С)
Тes
(С)
Комфортность P
(гПа)
Po
(гПа)
Тmin
(С)
Tmax
(С)
R
(мм)
R24
(мм)
S
(см)
18 17.03 СВ 4 н/о н/о -25.2 -28.2 76 -35 -35 опасность
обморожения
1021.8 1016.1 -29.6 -25.2
21 17.03 СВ 5 н/о н/о -23.4 -26.5 76 -34 -34 опасность
обморожения
1022.6 1016.9
00 18.03 С 6 н/о н/о -26.0 -29.1 75 -38 -38 опасность
обморожения
1022.8 1017.1 -27.8 -23.1
03 18.03 С 6 н/о н/о -29.5 -32.4 76 -43 -43 опасность
обморожения
1023.1 1017.3
06 18.03 СВ 5 н/о н/о -31.3 -34.3 75 -44 -44 опасность
обморожения
1022.2 1016.4 -31.3 -23.1
09 18.03 С 2 н/о н/о -31.9 -35.0 74 -40 -40 опасность
обморожения
1022.0 1016.3
12 18.03 Ю 1 н/о н/о -31.9 -34.9 75 -36 -36 опасность
обморожения
1020.8 1015.0 -32.8 -23.1 74
15 18.03 Ю 1 н/о н/о -29.9 -33.1 74 -34 -34 опасность
обморожения
1018.1 1012.3
18 18.03 Ю 2 н/о н/о -28.4 -31.5 75 -34 -34 опасность
обморожения
1015.5 1009.8 -32.8 -28.4
21 18.03 В 5 н/о н/о -25.4 -28.4 76 -36 -36 опасность
обморожения
1012.9 1007.2
00 19.03 В 3 н/о н/о -25.0 -27.7 78 -34 -34 опасность
обморожения
1011.4 1005.7 -32.8 -25.0
03 19.03 СВ 5 н/о н/о -27.8 -30.5 78 -39 -39 опасность
обморожения
1011.2 1005.5
06 19.03 СВ 6 н/о н/о -31.0 -34.0 75 -45 -45 опасность
обморожения
1012.7 1007.0 -32.8 -25.0
09 19.03 СВ 6 н/о н/о -33.4 -36.6 73 -48 -48 опасность
обморожения
1014.6 1008.9
12 19.03 СВ 6 н/о н/о -34.2 -37.4 73 -49 -49 опасность
обморожения
1017.3 1011.5 -34.2 -25.0 74
15 19.03 СВ 2 н/о н/о -32.5 -35.8 72 -41 -41 опасность
обморожения
1018.8 1013.0 0.2
18 19.03 ЮВ 1 н/о {осадки} н/о -23.8 -27.3 73 -25 -25 1019.0 1013.3 -34.5 -23.8 0.2
21 19.03 Ю 2 н/о н/о -21.6 -24.7 76 -27 -27 1019.5 1013.8
00 20.03 Ю 3 н/о н/о -25.3 -27.5 82 -34 -34 опасность
обморожения
1017.2 1011.4 -34.5 -21.3
03 20.03 Ю 6 н/о н/о -27.2 -29.7 79 -40 -40 опасность
обморожения
1013.8 1008.1 0.4
06 20.03 Ю 6 н/о {осадки} н/о -24.0 -26.7 78 -36 -36 опасность
обморожения
1009.1 1003.5 -34.5 -21.3 0.6
09 20.03 Ю 9 н/о н/о -20.8 -23.1 82 -34 -34 опасность
обморожения
1004.9 999.3
12 20.03 Ю 5 н/о н/о -19.2 -21.4 83 -29 -29 1001.3 995.7 -27.2 -21.3 74
15 20.03 ЮВ 4 н/о н/о -18.6 -20.7 83 -27 -27 999.0 993.4
18 20.03 В 4 н/о {осадки} н/о -17.6 -19.7 84 -26 -26 998.9 993.4 -27.2 -17.6 0.2
21 20.03 СВ 6 н/о н/о -15.8 -18.0 83 -25 -25 1000.5 995.0
00 21.03 С 5 н/о н/о -17.8 -19.9 84 -27 -27 1003.7 998.2 -24.0 -15.6
03 21.03 С 4 н/о н/о -20.0 -22.2 83 -29 -29 1006.1 1000.6
06 21.03 СЗ 5 н/о н/о -19.8 -22.0 83 -30 -30 1008.1 1002.6 -24.0 -15.6 9
09 21.03 СЗ 7 н/о н/о -20.0 -22.2 83 -32 -32 опасность
обморожения
1010.2 1004.7
12 21.03 С 7 н/о н/о -21.6 -23.9 82 -34 -34 опасность
обморожения
1012.7 1007.1 -21.6 -15.6 74
15 21.03 СЗ 8 н/о н/о -23.9 -26.4 80 -38 -38 опасность
обморожения
1014.5 1008.9
18 21.03 С 7 н/о н/о -22.6 -25.1 80 -35 -35 опасность
обморожения
1016.6 1011.0 -24.1 -19.8
21 21.03 СЗ 5 н/о н/о -22.0 -24.5 80 -33 -33 опасность
обморожения
1017.3 1011.7
00 22.03 СЗ 5 н/о н/о -23.0 -25.3 81 -33 -33 опасность
обморожения
1017.2 1011.6 -24.1 -21.6
03 22.03 ЮЗ 2 н/о н/о -25.0 -27.4 80 -32 -32 опасность
обморожения
1015.1 1009.4
06 22.03 ЮЗ 2 н/о н/о -23.3 -25.9 79 -30 -30 1012.6 1007.0 -25.0 -19.8 19
09 22.03 В 2 н/о н/о -22.4 -24.9 80 -27 -27 1009.2 1003.6
12 22.03 В 3 н/о н/о -21.4 -23.9 80 -29 -29 1005.6 1000.0 -25.0 -19.8 72
15 22.03 СВ 6 н/о н/о -22.3 -24.7 81 -34 -34 опасность
обморожения
1003.6 998.0
18 22.03 С 8 н/о н/о -22.3 -24.7 81 -36 -36 опасность
обморожения
1003.8 998.2 -25.0 -21.4
21 22.03 С 11 н/о н/о -22.9 -25.4 80 -38 -38 опасность
обморожения
1004.8 999.2
00 23.03 С 11 н/о н/о -25.0 -27.7 78 -41 -41 опасность
обморожения
1007.0 1001.4 -25.0 -21.4
03 23.03 С 11 н/о н/о -26.6 -29.4 77 -43 -43 опасность
обморожения
1009.8 1004.2
06 23.03 С 12 н/о н/о -30.5 -33.6 74 -49 -49 опасность
обморожения
1013.1 1007.4 -30.5 -21.4 5
09 23.03 С 9 н/о н/о -32.2 -35.3 74 -49 -49 опасность
обморожения
1017.6 1011.9
12 23.03 СЗ 10 н/о н/о -33.2 -36.4 73 -51 -51 опасность
обморожения
1021.1 1015.3 -33.2 -21.4 74
15 23.03 СЗ 11 н/о н/о -31.8 -34.9 74 -50 -50 опасность
обморожения
1021.5 1015.7
18 23.03 СЗ 14 н/о н/о -28.4 -31.3 76 -47 -47 опасность
обморожения
1022.0 1016.2 -33.3 -28.4
21 23.03 С 13 н/о н/о -26.4 -29.1 78 -44 -44 опасность
обморожения
1023.2 1017.4
00 24.03 С 8 н/о н/о -26.4 -29.1 78 -41 -41 опасность
обморожения
1024.9 1019.1 -33.3 -26.2
03 24.03 С 10 н/о н/о -27.5 -30.4 76 -44 -44 опасность
обморожения
1026.0 1020.2
06 24.03 С 10 н/о н/о -28.6 -31.5 76 -45 -45 опасность
обморожения
1027.3 1021.5 -33.3 -26.2 21
09 24.03 С 10 н/о н/о -29.2 -32.1 76 -46 -46 опасность
обморожения
1027.9 1022.1
12 24.03 С 8 н/о н/о -29.6 -32.5 76 -45 -45 опасность
обморожения
1028.2 1022.4 -29.6 -26.2 74
15 24.03 СЗ 10 н/о н/о -28.9 -31.8 76 -45 -45 опасность
обморожения
1027.8 1022.0

 

Местоположение метеостанции Джойа Хейвен (Нунавут, Канада): широта 68.63 долгота -95.85 высота над уровнем моря 43 м.

В архиве по умолчанию представлена погода в Джойа Хейвен за последнюю неделю. Архивные данные за месяц целиком и за предыдущие месяцы, начиная с января 2011 года, Вы можете получить, выбрав интересующий диапазон дат из раскрывающегося списка и нажав кнопку "Ввод!".


*Определитесь, кто Вы:
робот инопланетянин человек

Внимание! Время в таблицах - всемирное. Для получения местного времени необходимо прибавить поправку, которая равна -6 ч.

Смотрите также архив погоды в соседних городах и на ближайших метеорологических станциях:

Погода в Шеперд-Бее (Нунавут, Канада) (100 км)
Погода в Талойоаке (Нунавут, Канада) (136 км)
Погода на Острове Хат (Нунавут, Канада) (173 км)
Погода в Кугааруке (Нунавут, Канада) (246 км)
Погода в Кам Фор (Нунавут, Канада) (251 км)
Погода в Глеичене (Альберта, Канада) (285 км)
Погода в Кеймбридж-Бее (Нунавут, Канада) (374 км)
Погода в Кембридж Бэй (Нунавут, Канада) (374 км)
Погода в Вейджер Бэй (Нунавут, Канада) (412 км)
Погода в Бейкер Лейк (Нунавут, Канада) (479 км)

Пояснения к столбцам:

Ветер - указаны скорость ветра в м/с - средняя за 10 мин, порывы в срок и между сроками (в фигурных скобках) и направление, откуда дует ветер: С - северный, СВ - северо-восточный, В - восточный, ЮВ - юго-восточный, Ю - южный, ЮЗ - юго-западный, З - западный, СЗ - северо-западный.
Видимость - горизонтальная дальность видимости в метрах или километрах. При видимости от 1 до 10 км при отсутствии осадков обычно наблюдается дымка, при ухудшении видимости до 1 км и менее - туман. В сухую погоду видимость может ухудшаться дымом, пылью или мглою.
Явления - указаны атмосферные явления, наблюдавшиеся в срок или в последний час перед сроком; фигурными скобками обозначены явления, наблюдавшиеся между сроками (за 1-3 часа до срока); квадратными скобками обозначены град или гололедные отложения с указанием их диаметра в мм.
Облачность - указаны через наклонную черту общая и нижняя облачность в баллах и высота нижней границы облаков в метрах; квадратными скобками обозначены формы облаков: Ci - перистые, Cs - перисто-слоистые, Cc - перисто-кучевые, Ac - высококучевые, As - высокослоистые, Sc - слоисто-кучевые, Ns - слоисто-дождевые, Cu - кучевые, Cb - кучево-дождевые. Подробнее классификацию облаков см. в Атласе облаков (PDF).
T - Температура воздуха - температура, измеренная на высоте 2 м над землей.
Td - Температура точки росы - температура, при понижении до которой содержащийся в воздухе водяной пар достигнет насыщения.
f - Относительная влажность воздуха - влажноcть воздуха, измеренная на высоте 2 м над землей.
Te - Эффективная температура - температура, которую ощущает одетый по сезону человек в тени. Характеристика душности погоды. При расчете учитывается влияние влажности воздуха и скорости ветра на теплоощущения человека.
Tes - Эффективная температура на солнце - температура, которую ощущает человек, с поправкой на солнечный нагрев. Характеристика знойности погоды. Зависит от высоты солнца над горизонтом, облачности и скорости ветра. Ночью, в пасмурную погоду, а также при ветре 12 м/с и более поправка равна нулю.
P - Атмосферное давление - приведенное к уровню моря атмосферное давление.
Po - Атмосферное давление - измеренное на уровне метеостанции атмосферное давление.
Tmin - Минимальная температура - минимум температуры воздуха на высоте 2 м над землей.
Tmax - Максимальная температура - максимум температуры воздуха на высоте 2 м над землей.
R - Количество осадков - Количество выпавших осадков за период времени, мм. При наведении курсора мыши на число - период времени, за который выпало указанное количество осадков.
R24 - Количество осадков - Количество выпавших осадков за 24 часа, мм.
S - Снежный покров - Высота снежного покрова, см. При наведении курсора мыши на число - состояние снежного покрова и степень покрытия местности в баллах.